THORAD DELTA 1 DEB, 14881

Orbit data source: Space-Track

THORAD DELTA 1 DEB, 14881 is space debris in SSO originally from a launch on Fri, 15 Nov 1974 UTC launched from the Air Force Western Test Range (AFWTR). Debris objects in space refer to the collection of defunct objects orbiting the Earth. Examples of debris include non-operational satellites, rocket bodies, and fragments generated from explosions, collisions, or faulty payload assembly.

Loading next visibility...
Identifier
14881, 1974-089EU
Orbit
SSO
Country
Flag of USUS
Related business
Manufacturer
Unknown
Mission
Spacecraft
Bus & Motor
Unknown
Mass
Unknown
Launch date (UTC)
1974-11-15 (52 years ago)
Launch vehicle
Unknown
Launch site
Air Force Western Test Range (AFWTR)
Object type
Payload
Rocket body
Debris
Shape & HBR
Unknown shape, 0.1 m
Radar Cross Section
Medium (>0.1 m² and <1 m²)

Expand to show TLE details & history
Last TLE update: 14 hours ago

TLE from 14 hours ago
0 THORAD DELTA 1 DEB
1 14881U 74089EU  26208.32672051 -.00000028  00000-0  11371-3 0  9991
2 14881 101.7827 156.0174 0065672 262.0232 253.4855 12.42217926 45453
Epoch: 2026-07-27T07:50Z
TLE epoch observation values (Epoch: 2026-07-27T07:50:28.652Z)
Latitude
24.67087°
Longitude
-81.14257°
Altitude
1,514.905 km
Speed
7.103 km/s
True Right ascension
22h 45m 57s
True Declination
24° 33' 11"
Sunlit
Object was in daylight at epoch
Visualization orbit readout
Latitude
Unknown
Longitude
Unknown
Altitude
Unknown
Speed
Unknown
Apparent Right ascension
Unknown
Apparent Declination
Unknown
Sunlit
N/A
Visualization observer readout
Local Sidereal Time
11:25:38
Azimuth
Unknown
Elevation
Unknown
Doppler factor
Unknown
Orbital elements
Apogee altitude
1,546.477 km
Perigee altitude
1,443.071 km
Semi-major axis
7,872.911 km
Eccentricity
0.00657
Inclination
101.7827°
RAAN
156.0174°
Arg. of periapsis
262.0232°
True anomaly
252.7657°
Mean anomaly
253.4855°
Eccentric anomaly
253.12543°
Mean motion
3.10699 °/min
Orbital period
115.87 mins
BSTAR
0.00011371
Loading maneuver chart data...
Computing Atmospheric mass density...

Documentation

Showing up to 5 results
|